{"data":{"norad_id":46786,"intl_designator":"2020-074AZ","name":"STARLINK-1893","alt_names":[],"object_type":"PAYLOAD","status":"ACTIVE","operator":null,"country":"US","launch_date":"2020-10-24","launch_site_code":"AFETR","launch_vehicle":null,"mission":null,"orbit_class":"UNKNOWN","rcs_meters":null,"size_class":null,"mass_kg":null,"dimensions":null,"purposes":["comms"],"wikipedia_slug":null,"has_3d_model":false,"image_url":null,"decayed_at":null,"tle_current":{"epoch":"2026-09-17T01:22:17.894784Z","epoch_age_seconds":319432,"freshness":"STALE","line1":"1 46786U 20074AZ  26260.05715156  .03954834  12112-4  84292-3 0  9995","line2":"2 46786  53.0243  34.4088 0010748 311.3127  48.6989 16.29844660327591","mean_motion":16.2984466,"eccentricity":0.0010748,"inclination_deg":53.0243,"raan_deg":34.4088,"arg_perigee_deg":311.3127,"mean_anomaly_deg":48.6989,"bstar":0.00084292,"rev_number":32759,"period_min":88.351978279942,"perigee_km":185.89467339896,"apogee_km":200.01989767515,"semimajor_km":6571.0942855371,"source":"CELESTRAK","updated_at":"2026-09-17T09:00:35.206890Z"}}}